(213835) = 2000 VC44 = 2003 QZ110

Discovered at Socorro on 2003-08-31 by LINEAR.

Orbit

Orbit type: Main Belt

Note: WebGL enabled browser required.

epoch2023-09-13.0
epoch JD2460200.5
perihelion date2023-03-08.34972
perihelion JD2460011.84972
argument of perihelion (°)307.53062
ascending node (°)25.01903
inclination (°)5.90403
eccentricity0.1842770
perihelion distance (AU)1.7930982
Tisserand w.r.t. Jupiter3.6
ΔV w.r.t. Earth (km/sec)8.4
semimajor axis (AU)2.1981703
mean anomaly (°)57.05179
mean daily motion (°/day)0.30242090
aphelion distance (AU)2.603
period (years)3.26
P-vector [x]0.88563161
P-vector [y]-0.38699555
P-vector [z]-0.25669259
Q-vector [x]0.46234638
Q-vector [y]0.78657116
Q-vector [z]0.40931851
absolute magnitude17.56
phase slope0.15
uncertainty0
referenceMPEC 2024-A12
observations used313
oppositions13
arc length (days)8461
first opposition used2000
last opposition used2024
residual rms (arc-secs)0.78
perturbers coarse indicatorM-v
perturbers precise indicator003Ek
first observation date used2000-11-01.0
last observation date used2024-01-01.0
computer nameMPCLINUX
JD of orbit computation2456700.226966
perihelion JD uncertainty (days)5.8421E-05
argument of perihelion uncertainty (°)4.4912E-05
ascending node uncertainty (°)4.1804E-05
inclination uncertainty (°)7.0326E-06
eccentricity uncertainty 6.1837E-08
perihelion distance uncertainty (AU)1.3336E-07
Minimum Orbit Intersection Distances (in AU)
for orbit epoch: 2460200.5, reference: E2024-A12
Mercury1.38397
Venus1.06556
Earth0.79005
Mars0.41866
Jupiter2.75785
Saturn6.60999
Uranus15.8558
Neptune27.7249

Observations

322 total observations over interval: 2000 11 01.32447 – 2024 01 01.267395
These data are available for download (format description).

Date (UT) J2000 RA J2000 Dec Magn Location Ref
2000 11 01.32447 02 47 49.73 +19 46 35.6 19.1   704 – Lincoln Laboratory ETS, New Mexico MPS 21731
2000 11 01.33886 02 47 48.66 +19 46 33.7 19.6   704 – Lincoln Laboratory ETS, New Mexico MPS 21731
2000 11 01.35341 02 47 47.51 +19 46 33.9 19.6   704 – Lincoln Laboratory ETS, New Mexico MPS 21731
2000 11 03.21815 02 45 31.66 +19 44 36.0 19.2   704 – Lincoln Laboratory ETS, New Mexico MPS 21731
2000 11 03.23164 02 45 30.61 +19 44 34.4 19.3   704 – Lincoln Laboratory ETS, New Mexico MPS 21731
2000 11 03.24512 02 45 29.65 +19 44 34.0 19.4   704 – Lincoln Laboratory ETS, New Mexico MPS 21731
2000 11 03.25861 02 45 28.53 +19 44 32.6 19.4   704 – Lincoln Laboratory ETS, New Mexico MPS 21731
2000 11 03.27211 02 45 27.56 +19 44 32.2 19.3   704 – Lincoln Laboratory ETS, New Mexico MPS 21731
2000 11 18.26093 02 28 25.71 +19 20 09.5 19.1 R 699 – Lowell Observatory-LONEOS MPS 85105
2000 11 18.27670 02 28 24.79 +19 20 07.5   699 – Lowell Observatory-LONEOS MPS 85105
2000 11 18.29239 02 28 23.93 +19 20 04.8   699 – Lowell Observatory-LONEOS MPS 85105
2000 11 18.30810 02 28 22.85 +19 20 03.6   699 – Lowell Observatory-LONEOS MPS 85105
2003 08 23.32442 23 05 34.81 -17 02 20.8 18.1   644 – Palomar Mountain/NEAT MPS 90486
2003 08 23.34753 23 05 33.50 -17 02 24.0 18.2   644 – Palomar Mountain/NEAT MPS 90486
2003 08 23.38306 23 05 31.50 -17 02 29.1 18.2   644 – Palomar Mountain/NEAT MPS 90486
2003 08 31.26861 22 58 06.95 -17 17 14.5 18.4   704 – Lincoln Laboratory ETS, New Mexico MPS 84159
2003 08 31.28044 22 58 06.24 -17 17 15.4 19.0   704 – Lincoln Laboratory ETS, New Mexico MPS 84159
2003 08 31.29222 22 58 05.45 -17 17 15.1 18.9   704 – Lincoln Laboratory ETS, New Mexico MPS 84159
2003 08 31.30399 22 58 04.73 -17 17 15.9 18.7   704 – Lincoln Laboratory ETS, New Mexico MPS 84159
2003 08 31.31594 22 58 03.98 -17 17 17.7 18.5   704 – Lincoln Laboratory ETS, New Mexico MPS 84159
2003 09 05.39359 22 53 01.42 -17 21 21.7 20.2   608 – Haleakala-AMOS MPS 84159
2003 09 05.40390 22 53 00.76 -17 21 22.8 19.6   608 – Haleakala-AMOS MPS 84159
2003 09 05.41449 22 53 00.07 -17 21 23.0 19.7   608 – Haleakala-AMOS MPS 84159
2003 09 13.32360 22 45 25.93 -17 16 49.7 20.5   608 – Haleakala-AMOS MPS 84592
2003 09 13.33421 22 45 25.24 -17 16 47.6 20.2   608 – Haleakala-AMOS MPS 84592
2003 09 13.34489 22 45 24.64 -17 16 47.4 20.6   608 – Haleakala-AMOS MPS 84592
2003 09 14.19362 22 44 39.12 -17 15 27.8 18.7   644 – Palomar Mountain/NEAT MPS 84592
2003 09 14.26333 22 44 35.18 -17 15 21.2 18.5   644 – Palomar Mountain/NEAT MPS 84592
2003 09 14.33343 22 44 31.18 -17 15 14.0 18.5   644 – Palomar Mountain/NEAT MPS 84592
2005 01 19.460537 10 06 48.225 +20 43 23.61 21.26 V 645 – Apache Point-Sloan Digital Sky Survey MPS 390290
2005 01 19.464009 10 06 48.063 +20 43 24.59 22.15   645 – Apache Point-Sloan Digital Sky Survey MPS 390290
2005 02 09.28525 09 45 36.88 +22 35 41.3 20.3 R G96 – Mt. Lemmon Survey MPS 139311
2005 02 09.29012 09 45 36.55 +22 35 42.1 20.5 R G96 – Mt. Lemmon Survey MPS 139311
2005 02 09.29495 09 45 36.21 +22 35 44.0 20.5 R G96 – Mt. Lemmon Survey MPS 139311
2005 02 09.29982 09 45 35.85 +22 35 45.3 20.0 R G96 – Mt. Lemmon Survey MPS 139311
2007 12 17.45590 08 21 37.11 +28 45 44.9 20.6 V G96 – Mt. Lemmon Survey MPS 231757
2007 12 17.45932 08 21 36.97 +28 45 46.2 20.8 V G96 – Mt. Lemmon Survey MPS 231757
2007 12 17.46267 08 21 36.79 +28 45 47.4 21.1 V G96 – Mt. Lemmon Survey MPS 231757
2007 12 17.46602 08 21 36.68 +28 45 48.3 21.1 V G96 – Mt. Lemmon Survey MPS 231757
2008 01 16.24428 07 49 26.65 +30 58 33.8 20.4 V G96 – Mt. Lemmon Survey MPS 234193
2008 01 16.24921 07 49 26.25 +30 58 35.0 20.3 V G96 – Mt. Lemmon Survey MPS 234193
2008 01 16.25416 07 49 25.86 +30 58 35.8 20.4 V G96 – Mt. Lemmon Survey MPS 234193
2008 01 16.25912 07 49 25.42 +30 58 36.3 20.6 V G96 – Mt. Lemmon Survey MPS 234193
2009 03 26.44130 15 04 24.29 -18 28 36.1 21.0 V 691 – Steward Observatory, Kitt Peak-Spacewatch MPS 281240
2009 03 26.45898 15 04 23.97 -18 28 37.9 21.3 V 691 – Steward Observatory, Kitt Peak-Spacewatch MPS 281240
2009 03 26.47666 15 04 23.59 -18 28 39.2 21.3 V 691 – Steward Observatory, Kitt Peak-Spacewatch MPS 281240
2009 04 22.38664 14 44 49.84 -18 35 11.9 20.1 V G96 – Mt. Lemmon Survey MPS 284280
2009 04 22.38826 14 44 49.74 -18 35 11.6 19.9 V G96 – Mt. Lemmon Survey MPS 284280
2009 04 22.38986 14 44 49.63 -18 35 11.5 19.8 V G96 – Mt. Lemmon Survey MPS 284280
2009 04 22.39147 14 44 49.52 -18 35 11.6 19.8 V G96 – Mt. Lemmon Survey MPS 284280
2012 03 29.19272 12 41 54.17 -01 37 54.1 20.5 V 691 – Steward Observatory, Kitt Peak-Spacewatch MPS 419997
2012 03 29.21043 12 41 52.99 -01 37 49.4 20.4 V 691 – Steward Observatory, Kitt Peak-Spacewatch MPS 419997
2012 03 29.22816 12 41 51.79 -01 37 44.8 19.9 V 691 – Steward Observatory, Kitt Peak-Spacewatch MPS 419997
2012 03 30.35862 12 40 38.64 -01 32 41.9 20.6 V G96 – Mt. Lemmon Survey MPS 419997
2012 03 30.36383 12 40 38.28 -01 32 40.6 20.7 V G96 – Mt. Lemmon Survey MPS 419997
2012 03 30.36911 12 40 37.95 -01 32 39.5 20.2 V G96 – Mt. Lemmon Survey MPS 419997
2012 03 30.37436 12 40 37.59 -01 32 38.0 20.3 V G96 – Mt. Lemmon Survey MPS 419997
2012 04 12.34319 12 26 52.529 -00 38 34.67 20.6 w F51 – Pan-STARRS 1, Haleakala MPS 421656
2012 04 12.37113 12 26 50.768 -00 38 28.56 20.7 w F51 – Pan-STARRS 1, Haleakala MPS 421656
2012 04 12.38510 12 26 49.892 -00 38 25.39 20.6 w F51 – Pan-STARRS 1, Haleakala MPS 421656
2013 09 17.40791 02 50 38.42 +15 32 30.2 19.6 V G96 – Mt. Lemmon Survey MPS 478502
2013 09 17.41862 02 50 38.36 +15 32 32.7 19.5 V G96 – Mt. Lemmon Survey MPS 478502
2013 09 17.42932 02 50 38.32 +15 32 35.5 19.6 V G96 – Mt. Lemmon Survey MPS 478502
2013 09 17.44006 02 50 38.25 +15 32 38.0 19.6 V G96 – Mt. Lemmon Survey MPS 478502
2013 09 28.40512 02 47 49.32 +16 08 57.1 19.5 r I41 – Palomar Mountain--ZTF MPS 479700
2013 09 28.43814 02 47 48.23 +16 09 02.0 20.1 r I41 – Palomar Mountain--ZTF MPS 479700
2013 09 28.47135 02 47 47.18 +16 09 06.9 19.9 r I41 – Palomar Mountain--ZTF MPS 479700
2013 09 29.41217 02 47 19.00 +16 11 27.5 19.6 r I41 – Palomar Mountain--ZTF MPS 479700
2013 09 29.44467 02 47 17.87 +16 11 32.3 19.2 r I41 – Palomar Mountain--ZTF MPS 479700
2013 09 30.34727 02 46 48.92 +16 13 40.7 19.5 r I41 – Palomar Mountain--ZTF MPS 479700
2013 09 30.39645 02 46 47.10 +16 13 48.1 19.7 r I41 – Palomar Mountain--ZTF MPS 479700
2013 09 30.43345 02 46 45.73 +16 13 53.1 19.5 r I41 – Palomar Mountain--ZTF MPS 479700
2013 10 01.39361 02 46 12.35 +16 16 01.5 19.7 V 691 – Steward Observatory, Kitt Peak-Spacewatch MPS 479700
2013 10 01.41207 02 46 11.63 +16 16 03.8 19.8 V 691 – Steward Observatory, Kitt Peak-Spacewatch MPS 479700
2013 10 01.43720 02 46 10.64 +16 16 07.1 19.7 V 691 – Steward Observatory, Kitt Peak-Spacewatch MPS 479700
2013 10 02.32469 02 45 38.14 +16 17 57.4 19.6 r I41 – Palomar Mountain--ZTF MPS 479700
2013 10 02.35948 02 45 36.69 +16 18 02.0 19.7 r I41 – Palomar Mountain--ZTF MPS 479700
2013 10 02.39798 02 45 35.12 +16 18 06.5 19.6 r I41 – Palomar Mountain--ZTF MPS 479700
2013 10 03.30014 02 44 59.95 +16 19 51.5 20.1 r I41 – Palomar Mountain--ZTF MPS 481843
2013 10 03.33816 02 44 58.30 +16 19 56.2 19.9 r I41 – Palomar Mountain--ZTF MPS 481843
2013 10 03.37393 02 44 56.74 +16 20 00.2 20.0 r I41 – Palomar Mountain--ZTF MPS 481843
2013 10 04.28092 02 44 19.37 +16 21 38.2 20.0 r I41 – Palomar Mountain--ZTF MPS 481843
2013 10 04.37446 02 44 15.09 +16 21 48.8 19.7 r I41 – Palomar Mountain--ZTF MPS 481843
2013 10 04.40999 02 44 13.47 +16 21 52.1 20.0 r I41 – Palomar Mountain--ZTF MPS 481843
2013 10 06.36839 02 42 45.66 +16 24 58.5 19.5 r I41 – Palomar Mountain--ZTF MPS 481843
2013 10 06.41226 02 42 43.44 +16 25 02.5 19.4 r I41 – Palomar Mountain--ZTF MPS 481843
2013 10 07.35358 02 41 58.40 +16 26 19.4 19.3 r I41 – Palomar Mountain--ZTF MPS 481843
2013 10 07.38760 02 41 56.62 +16 26 22.1 19.2 r I41 – Palomar Mountain--ZTF MPS 481843
2013 10 15.26674 02 34 34.16 +16 32 15.3 19.0 V G96 – Mt. Lemmon Survey MPS 481843
2013 10 15.27417 02 34 33.67 +16 32 15.5 19.2 V G96 – Mt. Lemmon Survey MPS 481843
2013 10 15.28164 02 34 33.18 +16 32 15.7 19.0 V G96 – Mt. Lemmon Survey MPS 481843
